Regional Weather Roundup
Issued by NWS

Home | Current Version | Previous Version | Graphics & Text | Print | Product List | Glossary On
Versions: 1 2 3 4 5 6 7 8 9 10 11 12 13 14 15 16 17 18 19 20 21 22 23 24 25 26 27 28 29 30 31 32 33 34 35 36 37 38 39 40 41 42 43 44 45 46 47 48 49 50
458
ASUS43 KLOT 240108
RWRIL

ILLINOIS REGIONAL WEATHER ROUNDUP
NATIONAL WEATHER SERVICE CHICAGO/ROMEOVILLE IL
800 PM CDT WED MAY 23 2018

NOTE: "FAIR" INDICATES FEW OR NO CLOUDS BELOW 12,000 FEET WITH NO
SIGNIFICANT WEATHER AND/OR OBSTRUCTIONS TO VISIBILITY.

* THESE STATIONS ARE NOT UNDER NWS QUALITY CONTROL. THEY ALSO MAY NOT
  REPORT WEATHER SUCH AS PRECIPITATION OR FOG.

ILZ001-002-007-009-015-016-024-240200-
NORTHWEST ILLINOIS

CITY           SKY/WX    TMP DP  RH WIND       PRES   REMARKS
MOLINE         FAIR      78  61  55 E7        30.10S HX  80
STERLING*      FAIR      76  59  55 SE3       30.14
SAVANNA*       FAIR      77  57  50 SE5       30.13R
$$

ILZ003-004-008-010-011-017-018-240200-
NORTH CENTRAL ILLINOIS

CITY           SKY/WX    TMP DP  RH WIND       PRES   REMARKS
ROCKFORD       FAIR      74  58  57 S3        30.15R
FREEPORT*      FAIR      73  62  67 SE5       30.16S
ROCHELLE*      FAIR      75  60  60 SE3       30.15R
DE KALB*       FAIR      74  60  59 CALM      30.16R
PERU*          FAIR      78  60  54 E3        30.14R
$$

ILZ005-006-012>014-019>023-240200-
NORTHEAST ILLINOIS

CITY           SKY/WX    TMP DP  RH WIND       PRES   REMARKS
CHICAGO-OHARE  FAIR      72  47  40 E7        30.15R
CHICAGO-MIDWAY MOCLDY    69  50  50 E8        30.16R
AURORA         FAIR      73  54  51 E9        30.15R
LANSING*       FAIR      65  55  69 NE5       30.16S
JOLIET*        FAIR      74  51  44 E8        30.14S
WAUKEGAN       FAIR      63  51  65 E5        30.16R
DUPAGE AIRPORT FAIR      73  48  41 E7        30.14R
KANKAKEE*      FAIR      73  54  50 NE5       30.14R
WHEELING       FAIR      71  49  45 NE3       30.17R
MORRIS*        FAIR      76  56  48 E5        30.13R
ROMEOVILLE*    FAIR      71  51  47 E8        30.15R
NORTHERLY ISL    N/A     57  53  86 NE3         N/A
$$

LMZ740>746-240200-
SOUTHERN LAKE MICHIGAN

STATION/POSITION SKY/WX   TEMP    WIND        PRES    VSBY  WAVE
                          AIR SEA DIR/SP/G                  HT/PER
                          (F)     (DEG/KT/KT) (MB)    (MI)  (FT/S)
SOUTHERN BUOY              46 39   80/  4/  6 1022.2S         0
WILMETTE HARBOR            53 52  110/  4/  4   N/A           0
HARRISON CRIB              59     100/  3/  4   N/A
BURNHAM HARBOR             57      70/  2/  4   N/A
CALUMET HARBOR             57      50/  4/  5 1020.9R
BURNS HARBOR               59      80/  9/ 10 1021.7S
MICHIGAN CITY              59      40/ 10/ 10   N/A
MICHIGAN CITY 6N           57 57   60/  6/  6   N/A           0
ST. JOSEPH                 59 55   50/  6/  8 1021.7          1
$$

ILZ025>027-034>036-040-047-049-050-058-095>099-240200-
WEST-CENTRAL ILLINOIS

CITY           SKY/WX    TMP DP  RH WIND       PRES   REMARKS
QUINCY         CLEAR     81  63  54 E6        30.11R HX  82
GALESBURG*     FAIR      79  58  48 E3        30.13R HX  80
MACOMB*        CLEAR     80  64  59 SE5       30.13R HX  81
JACKSONVILLE*  CLEAR     80  63  55 N3        30.11R HX  81
PITTSFIELD*    CLEAR     80  68  66 CALM      30.12R HX  83
$$

ILZ028>032-037-038-041>044-048-051>054-059>061-240200-
CENTRAL ILLINOIS

CITY           SKY/WX    TMP DP  RH WIND       PRES   REMARKS
PONTIAC        FAIR      79  57  46 E7        30.13R HX  80
BLOOMINGTON    FAIR      78  50  37 SE8       30.14R
DECATUR        FAIR      78  51  38 SE7       30.12R
PEORIA         FAIR      80  59  48 N3        30.12R HX  81
LACON*         FAIR      76  60  58 CALM      30.12R
LINCOLN*       FAIR      83  54  37 SE3       30.11R HX  82
SPRINGFIELD    FAIR      81  58  45 SE6       30.11R HX  81
TAYLORVILLE    FAIR      79  60  52 S3        30.12R HX  80
$$

ILZ033-039-045-046-055>057-062-063-240200-
EAST-CENTRAL ILLINOIS

CITY           SKY/WX    TMP DP  RH WIND       PRES   REMARKS
CHAMPAIGN      FAIR      76  53  44 E6        30.13R
DANVILLE*      FAIR      76  54  46 NE5       30.12R
RANTOUL*       FAIR      80  56  43 SE7       30.13R HX  80
MATTOON        FAIR      76  62  62 CALM      30.11R
PARIS*         FAIR      75  58  55 CALM      30.13R
$$

ILZ079-100>102-240200-
SOUTHWEST ILLINOIS

CITY           SKY/WX    TMP DP  RH WIND       PRES   REMARKS
ALTON          PTCLDY    81  66  61 S5        30.11R HX  83
BELLEVILLE     PTCLDY    81  64  55 CALM      30.09R HX  82
CAHOKIA*       PTCLDY    81  63  54 E3        30.09S HX  82
SPARTA*        MOCLDY    79  64  59 CALM      30.11S HX  81
$$

ILZ064>066-069>071-074>076-080>082-084>086-088>090-092>094-240200-
SOUTH-CENTRAL ILLINOIS

CITY           SKY/WX    TMP DP  RH WIND       PRES   REMARKS
CARBONDALE     FAIR      77  65  66 NE5       30.09R
CAIRO*         FAIR      77  70  78 CALM      30.09R
EFFINGHAM*     FAIR      77  59  54 CALM      30.13R
MARION         FAIR      73  65  76 CALM      30.10S
MT. VERNON     FAIR      73  65  75 CALM      30.11R
CENTRALIA*     CLEAR     80  63  55 CALM      30.10R HX  82
SALEM*         FAIR      81  60  49 CALM      30.11R HX  81
METROPOLIS*    FAIR      78  68  71 CALM      30.09R HX  80
$$

ILZ067-068-072-073-078-083-087-091-240200-
SOUTHEAST ILLINOIS

CITY           SKY/WX    TMP DP  RH WIND       PRES   REMARKS
LAWRENCEVILLE  FAIR      81  57  43 NE7       30.10R HX  81
FLORA*         FAIR      82  59  45 E3        30.10S HX  82
FAIRFIELD*     FAIR      77  59  52 CALM      30.09S
HARRISBURG*    FAIR      78  67  68 CALM      30.09S
ROBINSON*      FAIR      75  60  59 SE7       30.11R
CARMI*         FAIR      80  63  56 CALM      30.09R HX  81
$$

ABBREVIATIONS USED IN REMARKS
   TC - TEMPERATURE IN CELSIUS
  WCI - WIND CHILL INDEX
   HX - HEAT INDEX
  VSB - VISIBILITY
$$





USA.gov is the U.S. government's official web portal to all federal, state and local government web resources and services.